Location: Temagami
(47.0645°N, 79.7909°W)
Time: 14:51:47
(UTC-04:00)

Envisat - Visible Passes

Search period start: 08 June 2026 00:00
Search period end: 18 June 2026 00:00
Orbit: 761 x 763 km, 98.4° (Epoch: 8 June)

Date Brightness Start Highest point End Pass type
(mag) Time Alt. Az. Time Alt. Az. Time Alt. Az.
8 Jun 4.9 02:59:11 10° NE 03:03:12 23° E 03:07:12 10° SE visible
8 Jun 3.4 04:37:30 10° N 04:42:24 50° WNW 04:47:15 10° SW visible
9 Jun 5.6 02:23:55 10° ENE 02:24:54 10° E 02:25:51 10° E visible
9 Jun 3.1 03:59:33 10° NNE 04:04:39 79° ESE 04:09:42 10° S visible
10 Jun 4.2 03:22:00 10° NNE 03:26:41 37° E 03:31:20 10° SSE visible
11 Jun 5.2 02:45:09 10° NE 02:48:31 18° E 02:51:51 10° SE visible
11 Jun 3.1 04:22:52 10° N 04:27:55 66° WNW 04:32:55 10° SSW visible
12 Jun 3.4 03:45:04 10° NNE 03:50:05 59° E 03:55:04 10° S visible
13 Jun 4.6 03:07:42 10° NE 03:12:02 28° E 03:16:20 10° SSE visible
14 Jun 5.4 02:31:29 10° ENE 02:33:46 13° E 02:36:04 10° ESE visible
14 Jun 3.0 04:08:17 10° NNE 04:13:24 87° WNW 04:18:28 10° SSW visible
15 Jun 3.9 03:30:38 10° NNE 03:35:29 44° E 03:40:18 10° S visible
16 Jun 5.0 02:53:33 10° NE 02:57:21 21° E 03:01:08 10° SE visible
16 Jun 3.3 04:31:40 10° N 04:36:38 56° WNW 04:41:33 10° SSW visible
17 Jun 3.2 03:53:46 10° NNE 03:58:50 71° ESE 04:03:53 10° S visible
